This is the latest recevied weather packets stored in our database for station/object WX5HOT. If no packets are shown the sender has not sent any weather packets the latest 1 day(s).
| Time | Temp. | Humidity | Pressure | Rain* | Wind** | Luminosity | Snow |
|---|---|---|---|---|---|---|---|
| 1778015139 | 20° C | 99% | 1056.3 hPa | 0 mm | 1.34 m/s, 188° | 209 W/m² | - |
| 1778014837 | 20° C | 99% | 1056.1 hPa | 0 mm | 1.79 m/s, 181° | 245 W/m² | - |
| 1778014535 | 20° C | 99% | 1056.5 hPa | 0 mm | 1.34 m/s, 175° | 351 W/m² | - |
| 1778014231 | 19.44° C | 99% | 1056.7 hPa | 0 mm | 1.79 m/s, 185° | 452 W/m² | - |
| 1778013929 | 18.89° C | 99% | 1057.1 hPa | 0 mm | 1.34 m/s, 177° | 155 W/m² | - |
| 1778013626 | 18.89° C | 99% | 1057.4 hPa | 0 mm | 1.79 m/s, 183° | 56 W/m² | - |
| 1778013323 | 18.89° C | 99% | 1057.5 hPa | 0 mm | 0.89 m/s, 188° | 152 W/m² | - |
| 1778013020 | 18.89° C | 99% | 1057.5 hPa | 0 mm | 0.89 m/s, 194° | 130 W/m² | - |
| 1778012716 | 19.44° C | 99% | 1057.3 hPa | 0 mm | 0.45 m/s, 185° | 80 W/m² | - |
| 1778012412 | 19.44° C | 99% | 1057.2 hPa | 0 mm | 0.89 m/s, 183° | 99 W/m² | - |
| 1778012109 | 19.44° C | 99% | 1057.2 hPa | 0 mm | 1.79 m/s, 183° | 195 W/m² | - |
| 1778011806 | 18.89° C | 99% | 1057.1 hPa | 0 mm | 0.89 m/s, 188° | 211 W/m² | - |
| 1778011504 | 18.89° C | 99% | 1057.1 hPa | 0 mm | 0.89 m/s, 187° | 230 W/m² | - |
| 1778011200 | 18.89° C | 99% | 1056.9 hPa | 0 mm | 1.79 m/s, 187° | 113 W/m² | - |
| 1778010897 | 18.89° C | 99% | 1057 hPa | 0 mm | 0.89 m/s, 184° | 217 W/m² | - |
| 1778010595 | 18.89° C | 99% | 1057.4 hPa | 0 mm | 1.34 m/s, 198° | 124 W/m² | - |
| 1778010292 | 18.89° C | 99% | 1057.4 hPa | 0 mm | 1.34 m/s, 178° | 54 W/m² | - |
| 1778010001 | 18.89° C | 99% | 1057.4 hPa | 0 mm | 0.89 m/s, 179° | 79 W/m² | - |
| 1778009690 | 18.89° C | 99% | 1057.1 hPa | 0 mm | 1.34 m/s, 179° | 98 W/m² | - |
| 1778009387 | 18.89° C | 99% | 1056.9 hPa | 0 mm | 0.89 m/s, 209° | 69 W/m² | - |
| 1778009086 | 18.89° C | 99% | 1056.6 hPa | 0 mm | 1.79 m/s, 175° | 154 W/m² | - |
| 1778008782 | 18.33° C | 99% | 1056.6 hPa | 0 mm | 1.34 m/s, 188° | 177 W/m² | - |
| 1778008481 | 18.33° C | 99% | 1056.6 hPa | 0 mm | 1.34 m/s, 197° | 139 W/m² | - |
| 1778008177 | 18.33° C | 99% | 1056.6 hPa | 0 mm | 1.79 m/s, 177° | 198 W/m² | - |
| 1778007872 | 18.33° C | 99% | 1056.9 hPa | 0 mm | 1.79 m/s, 180° | 164 W/m² | - |
* Rain latest hour (hover to see other rain measurements)
** Current wind speed in m/s (hover to see current wind gust speed)